Theta_e
312 311 311 312 311 312 312 312 312 312 312 312 313 312 312 310 312 312 312 312 309 306 306 305 307 310 315 315 315 316 321 323 324 326 328 327 328 330 327 330 334 335 334 346 356
310 313 311 311 311 311 312 312 312 312 312 312 312 312 313 312 311 313 311 311 310 306 306 310 309 311 314 315 315 317 318 321 322 324 326 327 327 332 330 330 334 337 329 352 356
309 311 314 313 313 312 312 312 312 312 312 311 310 311 312 313 313 314 318 315 314 312 310 309 310 310 313 315 315 316 317 318 319 322 323 325 326 328 332 333 331 330 327 330 353
308 308 309 309 308 309 311 312 312 312 312 311 310 310 312 313 318 313 319 311 309 315 311 310 310 310 314 316 315 316 316 316 317 320 321 324 325 328 331 331 330 331 328 327 329
307 308 307 307 307 307 307 307 307 308 309 310 310 310 312 314 315 313 310 310 311 315 313 312 311 311 314 316 316 317 316 316 316 317 320 322 325 327 329 332 329 330 329 329 328
305 306 306 306 306 306 307 308 308 308 309 309 310 310 312 315 315 310 312 310 314 316 313 312 312 311 312 314 316 317 316 316 316 316 316 322 326 325 327 330 331 331 330 331 330
304 304 305 306 305 306 307 308 309 309 310 310 310 310 312 315 314 315 316 318 318 316 315 311 311 311 311 313 313 315 316 317 317 317 318 317 324 327 327 328 330 331 331 329 330
302 302 304 305 305 306 307 308 308 309 311 312 311 312 312 315 312 313 313 316 317 316 313 310 310 311 313 314 315 315 315 316 316 317 317 319 323 325 326 327 330 331 331 331 330
302 301 301 303 304 305 306 307 308 311 312 311 311 311 315 313 311 312 313 317 316 314 310 309 310 311 313 316 316 316 315 316 316 317 317 319 320 321 324 326 327 329 331 331 329
300 301 301 301 303 304 305 306 311 311 312 312 312 311 314 316 316 316 314 315 312 311 309 309 311 314 314 315 317 317 316 315 316 317 317 318 320 319 322 324 326 328 328 330 330
300 300 301 301 301 302 304 307 313 314 311 316 317 317 317 317 317 316 315 312 310 310 312 311 314 315 315 315 317 318 318 317 317 317 317 317 318 320 320 322 324 327 329 328 331
300 300 301 301 301 301 303 310 316 315 317 317 317 316 316 318 319 317 313 312 311 312 314 314 315 315 315 315 317 318 319 318 318 318 319 317 318 319 321 321 322 325 327 328 330
300 300 300 301 301 304 312 313 314 314 318 318 318 318 317 316 319 317 313 314 313 312 314 315 315 315 315 315 317 318 319 319 319 320 318 318 319 320 321 321 322 324 323 328 329
300 300 301 301 307 309 307 309 314 314 321 319 319 319 318 318 320 319 314 315 316 313 313 313 315 315 314 316 317 319 318 319 319 319 320 320 322 322 322 322 323 322 321 324 328
301 300 301 303 302 305 308 312 314 315 319 320 320 319 319 319 319 321 316 316 318 317 314 314 317 318 315 317 319 319 319 319 319 320 320 321 321 323 322 322 322 322 320 320 324
301 300 301 303 306 304 308 308 314 321 321 319 322 321 320 319 320 321 317 316 316 318 318 318 317 318 319 319 319 319 319 319 319 320 320 320 321 322 323 323 323 324 323 322 320
301 301 301 303 306 308 309 310 319 319 316 317 321 322 322 320 320 320 320 319 318 319 319 317 317 318 318 319 319 319 320 321 320 320 320 320 321 320 325 325 325 325 323 322 321
301 301 304 306 309 308 312 315 316 314 317 319 320 321 322 321 321 320 320 319 318 319 319 318 317 317 318 319 321 321 322 321 320 320 319 321 321 321 325 323 323 322 321 321 320
301 303 308 309 313 309 311 317 314 315 315 317 320 322 323 322 321 322 321 320 318 318 320 320 318 317 317 319 320 322 322 322 322 322 322 321 322 325 324 324 323 322 322 321 320
303 307 308 311 311 310 312 314 313 314 316 320 320 320 323 321 321 323 322 321 321 319 320 320 320 318 317 319 320 322 321 322 322 323 321 322 324 322 325 325 324 324 322 320 319
306 307 311 312 310 312 315 314 314 312 316 319 319 320 321 321 321 322 322 321 319 319 320 320 322 323 322 321 320 321 322 323 324 323 324 322 325 326 325 325 324 323 321 320 319
305 309 311 310 314 315 318 316 316 318 317 318 318 319 321 315 318 323 322 322 320 319 319 320 321 326 322 322 321 322 323 322 329 325 324 325 325 324 325 324 323 321 320 319 318
304 307 309 311 317 316 316 315 316 315 317 319 319 319 319 318 318 320 323 319 320 320 321 322 324 326 326 323 322 322 322 323 325 326 326 325 324 323 322 323 321 320 319 318 317
305 309 310 313 313 313 315 315 315 314 317 318 318 319 320 318 318 316 323 319 320 322 322 321 323 324 326 325 324 324 324 322 323 325 324 324 324 323 322 322 321 319 319 318 317
306 308 310 312 312 311 313 314 315 316 316 317 319 319 320 318 318 313 319 319 320 319 323 324 326 325 323 320 322 323 323 323 322 321 322 321 322 324 323 322 321 319 318 317 316
306 308 307 308 309 311 312 314 314 314 313 317 318 319 320 320 315 316 318 320 322 320 320 322 325 324 323 320 321 321 321 321 321 321 321 320 320 320 320 320 318 317 316 316 315
304 304 305 308 309 311 311 312 312 313 310 313 315 314 317 315 315 315 313 316 319 322 322 323 323 324 323 318 317 316 316 317 318 318 319 320 319 319 318 317 317 316 315 314 312
Wind_Speed
16 15 14 15 16 16 16 17 17 18 18 19 20 21 20 19 21 20 23 16 13 12 13 11 6 14 12 15 16 17 17 21 27 24 18 14 15 19 6 2 5 6 9 8 8
17 15 15 15 16 17 17 17 18 19 20 20 21 21 22 20 21 25 21 16 13 15 13 12 11 16 17 17 15 18 17 26 20 18 14 19 20 25 14 7 7 5 12 7 8
17 16 17 17 18 19 18 19 19 21 22 23 22 21 22 17 15 6 7 5 4 7 12 13 12 17 18 16 23 21 22 19 25 19 17 18 21 24 21 15 7 7 8 10 1
17 17 18 19 20 21 22 22 22 22 24 24 24 22 22 9 6 5 9 3 6 4 13 13 15 20 16 17 23 19 23 25 22 18 22 23 21 25 26 20 15 8 4 7 7
19 19 19 20 21 21 22 22 23 24 24 23 23 22 15 10 18 10 14 17 12 10 17 16 17 20 17 17 18 21 19 22 25 22 25 24 25 23 24 28 16 11 5 5 5
21 21 22 22 23 24 22 21 22 21 22 22 22 21 9 13 12 9 12 14 10 14 16 17 12 19 11 18 18 15 23 21 20 27 30 23 23 25 27 22 22 21 21 17 13
21 22 22 22 23 23 24 22 23 23 23 25 24 13 16 27 9 9 10 9 11 14 14 19 9 15 10 12 20 22 15 18 22 24 20 32 24 26 27 21 31 29 25 27 23
22 22 22 22 23 23 23 23 24 27 24 18 14 12 14 9 16 22 11 10 11 13 14 15 12 12 9 12 8 19 21 20 19 22 28 19 29 28 28 27 22 27 26 23 37
24 24 23 23 25 24 25 25 27 14 12 3 10 11 11 10 17 17 18 12 13 12 13 16 11 11 14 12 12 16 17 21 19 23 22 24 26 25 31 32 30 27 34 32 40
27 26 26 24 25 25 26 25 14 2 4 8 4 7 16 8 10 15 18 17 13 17 18 18 12 10 13 14 15 18 21 16 18 19 20 28 25 24 13 18 29 33 39 43 56
28 26 26 25 23 25 25 17 3 4 14 14 8 8 4 6 10 15 23 21 13 23 13 22 13 18 19 21 16 9 11 15 16 16 22 25 28 25 25 26 25 28 38 41 50
30 28 25 26 24 25 21 7 7 6 13 23 28 28 17 3 10 18 25 16 20 17 16 14 20 17 15 18 17 15 16 14 11 13 18 22 24 24 25 25 28 23 28 39 45
29 29 27 27 27 20 9 9 8 9 10 18 26 25 23 25 15 25 31 18 19 19 23 17 12 18 17 18 19 17 18 14 11 4 11 17 23 20 21 21 23 24 22 27 40
31 29 29 27 13 8 19 10 6 6 7 12 9 11 20 18 19 23 34 24 13 20 20 21 15 17 20 21 21 18 16 17 15 10 13 19 13 19 17 19 18 23 23 15 30
30 30 27 23 27 19 6 3 5 5 8 6 9 5 13 27 15 32 34 30 19 15 18 18 18 17 23 19 19 16 13 14 15 16 17 15 11 12 17 14 19 16 15 23 16
31 30 29 27 18 20 11 9 4 8 12 7 9 13 15 26 21 29 32 34 24 17 19 17 12 17 16 15 16 16 18 13 16 15 15 18 13 10 14 15 15 12 9 8 12
31 30 30 18 15 6 9 8 7 11 5 14 7 12 17 18 24 23 26 28 22 21 17 18 16 14 11 12 10 13 13 9 10 13 14 18 12 6 11 9 7 12 15 13 12
33 32 24 16 9 14 6 9 15 12 24 5 3 4 13 19 24 24 26 24 25 21 13 16 17 21 14 16 12 18 16 11 14 13 15 8 8 5 8 10 12 16 17 16 17
33 28 15 7 6 12 15 13 19 20 22 16 11 12 8 9 6 23 23 25 25 23 21 17 18 18 19 15 18 13 11 13 9 5 7 12 7 6 9 11 13 15 17 17 18
29 21 11 9 7 15 12 22 21 25 17 12 17 8 9 12 8 14 22 23 25 25 21 10 13 12 16 14 13 13 14 9 9 11 13 7 14 7 15 12 11 13 16 17 17
17 11 7 2 12 13 11 17 19 30 18 16 19 9 2 6 14 20 15 10 23 25 21 11 6 7 11 14 17 11 12 11 5 8 10 10 8 9 12 11 10 11 14 15 14
9 5 5 2 5 6 10 17 12 17 18 18 17 13 10 7 5 12 19 11 17 19 21 16 10 11 13 4 3 3 7 14 8 12 8 10 3 0 9 10 13 14 13 12 12
13 12 6 10 5 7 12 13 7 7 17 12 10 11 10 10 4 20 10 2 8 19 18 11 5 9 8 11 8 9 5 2 4 6 12 12 3 6 10 11 13 13 12 11 9
8 5 7 8 4 7 12 12 10 4 12 12 5 3 9 4 6 5 9 4 4 5 7 16 6 7 6 5 13 15 13 11 9 7 10 11 12 12 10 9 9 9 8 8 5
7 5 5 6 7 13 12 13 14 11 9 4 5 8 6 4 5 4 3 4 6 3 10 8 12 15 8 3 4 7 10 10 10 7 7 3 6 14 13 11 8 6 5 5 3
7 6 11 21 13 10 9 8 11 12 5 2 7 3 9 6 7 3 2 4 8 8 9 1 8 13 10 6 4 5 6 7 6 5 6 4 5 2 5 3 8 6 4 3 1
13 14 11 11 10 11 4 8 11 10 4 6 5 5 4 6 4 10 5 7 1 13 10 6 9 12 9 5 4 7 11 12 9 6 7 9 2 9 5 5 5 4 2 1 0
Wind_Direction
328 326 322 320 319 318 314 313 309 308 307 307 308 309 307 303 304 302 275 271 266 238 231 225 200 196 204 218 218 219 237 234 233 228 242 237 214 203 196 70 99 97 21 312 191
324 319 318 316 314 312 311 309 307 306 305 305 304 306 306 306 306 287 290 268 245 224 203 193 192 187 202 214 213 218 229 235 242 244 239 238 225 210 208 166 152 119 12 59 161
327 317 313 311 309 306 303 301 301 300 301 303 304 304 302 312 306 259 171 140 139 197 193 194 198 191 212 218 215 221 243 240 246 249 254 254 236 235 227 197 151 88 26 46 144
333 327 319 315 312 307 302 299 295 294 295 297 300 303 301 299 279 196 192 171 296 205 184 177 185 193 212 210 219 225 236 243 252 228 236 244 249 237 223 214 169 141 20 16 20
330 326 321 319 317 313 308 302 297 293 290 291 293 298 302 252 244 261 242 262 273 214 191 186 192 203 218 221 223 223 241 223 236 235 241 246 244 247 236 228 184 205 236 295 325
327 325 324 322 320 318 314 308 300 294 290 289 288 290 255 251 252 238 230 244 221 204 208 193 205 209 252 235 230 218 239 238 229 232 233 235 240 236 239 246 223 227 228 262 287
326 323 320 318 317 316 316 311 302 297 292 287 279 259 246 242 238 209 182 201 202 200 216 198 184 188 227 238 240 242 242 230 235 244 251 236 240 229 233 238 244 233 231 250 281
327 322 319 314 313 314 316 310 307 304 297 283 245 198 250 263 228 226 215 216 213 205 206 199 186 205 235 234 246 231 226 238 226 224 234 249 243 231 224 242 243 233 232 240 264
328 324 319 313 312 315 315 313 315 306 309 258 166 196 259 256 233 219 196 194 172 175 168 177 167 193 212 230 229 214 232 223 242 224 224 216 246 249 229 229 234 236 230 244 247
331 328 324 318 314 315 312 315 311 305 124 139 185 223 241 229 202 185 182 170 149 160 155 180 182 191 216 215 221 217 228 233 234 229 223 226 232 240 231 233 242 232 229 219 238
329 327 325 320 317 311 311 317 253 227 205 211 221 240 312 169 150 168 170 164 168 172 177 186 198 203 201 214 231 282 247 231 240 240 235 231 237 223 222 221 238 231 235 230 225
325 326 324 316 316 307 307 238 260 298 287 252 246 245 241 227 192 171 169 172 174 188 176 181 216 207 216 206 225 246 259 243 263 238 233 230 240 236 229 225 230 237 241 236 233
325 324 325 318 319 312 294 273 270 306 268 279 240 233 225 219 226 179 181 187 188 196 195 199 202 212 208 209 221 222 251 246 265 309 204 228 234 233 227 220 222 229 245 241 226
322 324 327 323 333 310 302 283 284 262 273 260 197 236 200 201 215 200 195 187 191 205 199 221 210 198 209 216 213 230 220 252 262 255 224 209 235 208 210 213 218 221 232 223 202
319 321 324 323 304 296 290 265 333 190 273 95 172 192 190 190 186 196 196 203 203 197 188 206 210 204 206 212 218 241 228 237 255 253 262 217 259 213 181 207 209 218 229 229 219
317 320 320 315 286 304 262 259 290 233 242 239 171 184 178 209 194 172 186 204 220 209 204 229 208 207 214 215 227 239 231 245 249 250 240 248 236 179 171 205 165 136 136 153 178
318 319 312 294 279 273 221 179 221 240 210 247 216 192 207 193 200 168 183 198 208 207 203 215 199 212 218 209 208 200 201 203 210 223 238 221 219 248 75 87 116 121 112 119 121
320 322 318 307 279 214 177 202 236 246 230 265 216 222 258 209 206 191 185 194 209 207 208 202 211 207 190 227 191 203 216 236 207 209 214 164 227 226 98 107 111 106 107 108 104
326 326 306 266 269 193 202 220 232 243 267 263 248 242 205 270 290 207 199 201 200 209 211 204 218 193 219 214 240 189 223 258 272 269 273 169 150 132 120 124 123 116 110 102 97
329 321 307 281 234 174 216 241 246 247 274 259 254 265 219 196 219 240 204 201 203 200 208 211 207 183 194 231 227 265 212 198 230 237 235 181 176 214 165 150 139 126 114 108 104
333 312 301 346 139 194 237 238 253 247 256 272 268 262 308 207 216 256 206 188 197 193 205 194 199 195 164 202 210 198 221 239 275 260 225 228 232 101 153 145 138 120 114 108 104
331 292 227 290 244 224 255 279 350 302 293 284 261 258 209 136 308 269 222 185 204 187 196 205 224 184 215 82 299 322 267 227 219 221 248 271 126 67 124 135 140 124 114 107 100
309 282 258 222 263 288 300 295 254 265 265 268 265 236 176 181 137 245 189 76 192 192 174 169 181 180 179 195 202 224 213 274 311 308 219 224 180 130 131 139 133 128 124 118 109
292 299 234 233 301 326 329 313 315 282 281 299 298 202 162 152 166 273 202 100 104 201 163 150 170 217 229 297 184 197 199 200 212 222 248 252 141 171 173 146 137 136 140 138 128
264 255 302 301 321 319 311 290 302 326 278 320 223 196 188 130 147 220 179 102 134 181 124 164 193 193 156 204 172 177 179 185 210 225 227 161 213 170 177 176 171 175 177 175 169
283 318 333 299 296 290 295 306 319 350 335 242 330 268 195 169 152 112 343 198 168 169 129 145 142 158 158 210 229 214 202 203 212 195 239 202 222 215 107 198 172 185 205 234 294
315 314 320 296 314 294 314 321 314 355 292 34 3 34 94 63 136 137 160 280 185 154 136 137 148 176 162 176 193 236 227 218 221 212 243 238 24 116 154 180 162 170 196 131 225